Regional Weather Roundup
Issued by NWS

Home | Current Version | Previous Version | Text Only | Print | Product List | Glossary On
Versions: 1 2 3 4 5 6 7 8 9 10 11 12 13 14 15 16 17 18 19 20 21 22 23 24 25 26 27 28 29 30 31 32 33 34 35 36 37 38 39 40 41 42 43 44 45 46 47 48 49 50
000
ASUS45 KBOU 272207
RWRCO

WEATHER ROUNDUP FOR COLORADO
NATIONAL WEATHER SERVICE DENVER/BOULDER CO
300 PM MST THU NOV 27 2014

NOTE: "FAIR" INDICATES FEW OR NO CLOUDS BELOW 12000 FEET WITH NO
SIGNIFICANT WEATHER AND/OR OBSTRUCTIONS TO VISIBILITY.

COZ001>005-013-030-031-272300-
...NORTHWEST COLORADO...

CITY           SKY/WX    TMP DP  RH WIND       PRES   REMARKS
CRAIG          CLOUDY    45  28  51 E12       30.28F
HAYDEN         CLOUDY    37  27  65 SE7       30.29S
MEEKER         CLOUDY    48  29  47 CALM      30.30F
MOUNT WERNER   NOT AVBL
STEAMBOAT SPGS CLOUDY    36  28  73 CALM      30.30F
WALDEN         PTSUNNY   41  19  42 SW16G22   30.29R
$$

COZ006>008-011-272300-
...WEST CENTRAL VALLEYS...

CITY           SKY/WX    TMP DP  RH WIND       PRES   REMARKS
GRAND JUNCTION MOSUNNY   52  27  38 CALM      30.33F
MONTROSE       SUNNY     55  22  27 CALM      30.35F
EAGLE          MOSUNNY   52  23  32 SW20      30.33F
RIFLE          PTSUNNY   47  27  45 CALM      30.34F
DELTA          SUNNY     58  24  27 CALM      30.33F
NUCLA          SUNNY     54  23  30 CALM      30.38F
$$

COZ017>023-064>068-272300-
...SOUTHWEST COLORADO...

CITY           SKY/WX    TMP DP  RH WIND       PRES   REMARKS
DURANGO        SUNNY     54  21  27 S8        30.37F
CORTEZ         SUNNY     55  23  28 SW13      30.37S
PAGOSA SPRINGS SUNNY     54  18  23 SW7       30.39S
TELLURIDE      MOSUNNY   52  13  21 W5        30.47S
WOLF CREEK PAS SUNNY     37   9  30 MISG      30.54S
$$

COZ009-010-012-014-032>034-037-058>063-272300-
...CENTRAL COLORADO...

CITY           SKY/WX    TMP DP  RH WIND       PRES   REMARKS
ASPEN          SUNNY     42  24  49 NW7       30.36F
BUENA VISTA    SUNNY     53  15  22 W13G26    30.32S
COPPER MTN     MOSUNNY   34  18  51 W26G38    30.46R HAZE    WCI  21
BERTHOUD PASS  NOT AVBL
COTTONWOOD PAS SUNNY     48   9  20 NW12G33   30.37S
GUNNISON       SUNNY     37  19  48 CALM      30.45F
KREMMLING      PTSUNNY   46  23  39 W13       30.32F
LEADVILLE      MOSUNNY   40  17  39 N10G18    30.39S
MONARCH PASS   SUNNY     30  18  59 W23G33    30.58R WCI  17
SALIDA         SUNNY     59  13  16 W20G30    30.37S
SUNLIGHT       MOSUNNY   32  27  80 CALM      30.46F
WILKERSON PASS MOSUNNY   37  10  32 W18G37    30.41F
$$

COZ069>075-272300-
...SAN LUIS VALLEY/SANGRE DE CRISTO MOUNTAINS...

CITY           SKY/WX    TMP DP  RH WIND       PRES   REMARKS
ALAMOSA        SUNNY     52  17  25 CALM      30.36F
LA VETA PASS   SUNNY     45  14  29 SW7G18    30.42F
SAGUACHE       SUNNY     48  19  32 S7        30.38F
$$

COZ035-036-038>040-272300-
...NORTHERN COLORADO FRONT RANGE...

CITY           SKY/WX    TMP DP  RH WIND       PRES   REMARKS
DENVER INTL AP CLOUDY    64  18  17 W22G32    30.11F
DMNS CITY PARK   N/A     60  19  20 S5        30.12F
AURORA         PTSUNNY   61  20  20 N5        30.15F
FRONT RANGE AP NOT AVBL
ERIE MUNI ARPT CLOUDY    61  19  19 CALM      30.11S
BOULDER MUN AP CLOUDY    63  19  19 SW3G28    30.11R
CENTENNIAL     CLOUDY    59  18  20 NW3       30.15F
BROOMFIELD     PTSUNNY   63  18  17 W10G18    30.14F
FORT COLLINS   CLOUDY    57  27  30 E8        30.09S
LONGMONT       CLOUDY    65  19  16 W21G31    30.11S
$$

COZ041-046-047-076>085-087-088-272300-
...PIKES PEAK/PALMER DIVIDE AND SOUTHERN FOOTHILLS...

CITY           SKY/WX    TMP DP  RH WIND       PRES   REMARKS
COLO. SPRINGS  CLOUDY    64  13  13 VRB3      30.19S
A. F. ACADEMY  CLOUDY    62  11  13 NE9G22    30.19S
ELLICOTT       NOT AVBL
FALCON         NOT AVBL
FORT CARSON    CLOUDY    64  15  15 SW12      30.16F
LIMON          CLOUDY    61  16  17 NW9       30.14S
MONUMENT HILL  CLOUDY    55  16  21 W9        30.22R
TRINIDAD       MOSUNNY   58  30  34 W3        30.21S
$$

COZ042>045-048>051-090-091-272300-
...NORTHEAST COLORADO...

CITY           SKY/WX    TMP DP  RH WIND       PRES   REMARKS
GREELEY ARPT   CLOUDY    63  25  23 W10G20    30.09S
AKRON          CLOUDY    52  29  41 W10       30.08F
BURLINGTON     PTSUNNY   60  23  24 SW13      30.10S
WRAY           MOSUNNY   62  27  26 NW5       30.05S
STERLING       CLOUDY    43  36  75 S6        30.06S
HOLYOKE        MOSUNNY   57  32  38 W8        30.05F
FORT MORGAN    CLOUDY    47  32  55 W3        30.09S
$$

COZ086-089-092>099-272300-
...SOUTHEAST COLORADO...

CITY           SKY/WX    TMP DP  RH WIND       PRES   REMARKS
PUEBLO         PTSUNNY   71  12  10 W15       30.12F
LA JUNTA       PTSUNNY   68  27  21 W5        30.12F
LAMAR          PTSUNNY   61  29  29 CALM      30.10F
SPRINGFIELD      N/A     68  20  16 SW7       30.13F
$$


USA.gov is the U.S. government's official web portal to all federal, state and local government web resources and services.